Regional Weather Roundup
Issued by NWS

Home | Current Version | Previous Version | Graphics & Text | Print | Product List | Glossary On
Versions: 1 2 3 4 5 6 7 8 9 10 11 12 13 14 15 16 17 18 19 20 21 22 23 24 25 26 27 28 29 30 31 32 33 34 35 36 37 38 39 40 41 42 43 44 45 46 47 48 49 50
915
ASUS44 KJAN 011710
RWRMS

MISSISSIPPI HOURLY WEATHER ROUNDUP
NATIONAL WEATHER SERVICE JACKSON MS
1200 PM CDT MON SEP 01 2014

NOTE: "FAIR: INDICATES FEW OR NO CLOUDS BELOW 12,000 FEET WITH NO
SIGNIFICANT WEATHER AND/OR OBSTRUCTIONS TO VISIBILITY.

MSZ001>002-007>008-010>013-018>021-025>028-034>036-011800-
NORTHWEST MISSISSIPPI

CITY           SKY/WX    TMP DP  RH WIND       PRES   REMARKS
CLARKSDALE     FAIR      88  75  66 S9        30.07F HX  97
CLEVELAND      PTSUNNY   87  76  70 SW6       30.06R HX  97
GREENWOOD      MOSUNNY   88  74  63 SW9       30.07S HX  96
GREENVILLE     MOSUNNY   88  75  65 S9        30.04F HX  97
GRENADA        FAIR      88  72  58 S6        30.07F HX  94
OXFORD         PTSUNNY   84  72  65 W6        30.10S
TUNICA         LGT RAIN  82  73  74 W8        30.08S
$$

MSZ003>006-009-014>017-022>024-029>033-037>039-011800-
NORTHEAST MISSISSIPPI

CITY           SKY/WX    TMP DP  RH WIND       PRES   REMARKS
BELMONT        FAIR      86  72  63 SW8       30.10F HX  92
COLUMBUS AFB   MOSUNNY   88  69  53 VRB5      30.09F HX  93
CORINTH        FAIR      86  72  62 SW9G17    30.07F HX  92
GOLDN TRIANGLE MOSUNNY   88  72  58 S7        30.10F HX  94
STARKVILLE     PTSUNNY   86  70  58 SW5       30.09S HX  90
TUPELO         SUNNY     90  70  51 W9        30.08S HX  95
$$

MSZ040-058-011800-
CENTRAL MISSISSIPPI

CITY           SKY/WX    TMP DP  RH WIND       PRES   REMARKS
JACKSON INTL   MOSUNNY   90  72  55 S14       30.08S HX  97
JACKSON HAWKNS PTSUNNY   90  73  57 S15G24    30.08S HX  98
MERIDIAN KEY   SUNNY     89  70  53 S10       30.10S HX  94
MERIDIAN NAS   SUNNY     89  70  53 S8        30.10F HX  94
RAYMOND        FAIR      90  84  84 S8        30.07F HX 115
VICKSBURG      PTSUNNY   86  74  67 S8        30.05F HX  94
$$

MSZ059>079-011800-
SOUTH MISSISSIPPI

CITY           SKY/WX    TMP DP  RH WIND       PRES   REMARKS
BROOKHAVEN     FAIR      88  75  66 SE12      30.10S HX  97
HATTIESBURG    MOSUNNY   91  72  53 SE12      30.08F HX  98
MCCOMB         PTSUNNY   87  74  64 S13G18    30.07F HX  95
NATCHEZ        MOSUNNY   88  75  66 S13       30.06F HX  97
PINE BELT      PTSUNNY   88  73  62 S8        30.10F HX  96
$$

MSZ080>082-011800-
COASTAL MISSISSIPPI

CITY           SKY/WX    TMP DP  RH WIND       PRES   REMARKS
BILOXI         MOSUNNY   90  77  64 SE9       30.09S HX 103
PASCAGOULA     MOSUNNY   91  75  59 SE12      30.09S HX 101
GULFPORT       MOSUNNY   89  76  65 SE15G23   30.08S HX 100
$$



USA.gov is the U.S. government's official web portal to all federal, state and local government web resources and services.